Regional Weather Roundup
Issued by NWS

Home | Current Version | Previous Version | Text Only | Print | Product List | Glossary On
Versions: 1 2 3 4 5 6 7 8 9 10 11 12 13 14 15 16 17 18 19 20 21 22 23 24 25 26 27 28 29 30 31 32 33 34 35 36 37 38 39 40 41 42 43 44 45 46 47 48 49 50
000
ASUS44 KOUN 290810
RWROK

WEATHER ROUNDUP FOR OKLAHOMA
NATIONAL WEATHER SERVICE NORMAN OK
300 AM CDT THU JUN 29 2017

NOTE: "FAIR" INDICATES FEW OR NO CLOUDS BELOW 12,000 FEET WITH NO
      SIGNIFICANT WEATHER AND/OR OBSTRUCTIONS TO VISIBILITY.

OKZ001>007-009>012-014-015-017-290900-
NORTHWEST OKLAHOMA AND THE PANHANDLE

CITY           SKY/WX    TMP DP  RH WIND       PRES   REMARKS
GAGE           CLEAR     76  65  68 S25G35    29.72F
GUYMON         CLEAR     77  59  53 S18       29.69S
ENID/WOODRING  CLEAR     77  66  69 S16G22    29.75S
$$

OKZ016-021>023-033>039-044-045-290900-
SOUTHWEST OKLAHOMA

CITY           SKY/WX    TMP DP  RH WIND       PRES   REMARKS
LAWTON/REGL    CLEAR     75  69  81 S12       29.80S
LAWTON/FT SILL CLEAR     75  69  82 S13       29.79F
FREDERICK      CLEAR     76  67  73 S15       29.77S
CLINTON        CLEAR     75  66  73 S24G31    29.78F
HOBART         CLEAR     77  66  68 S20G30    29.79S
ALTUS AFB      PTCLDY    75  66  72 SE13      29.78F
$$

OKZ018>020-024>031-290900-
CENTRAL OKLAHOMA

CITY           SKY/WX    TMP DP  RH WIND       PRES   REMARKS
OKLAHOMA CITY  PTCLDY    74  66  76 S14       29.81S
OKC/WILEY POST CLEAR     77  68  73 S18G30    29.79F
STILLWATER     CLEAR     77  66  68 S13       29.78F
GUTHRIE        CLEAR     77  67  71 S14G25    29.77F
$$

OKZ008-013-054>072-290900-
NORTHEAST OKLAHOMA

CITY           SKY/WX    TMP DP  RH WIND       PRES   REMARKS
TULSA          CLEAR     78  69  73 S16       29.80S
TULSA/JONES    CLEAR     77  67  71 S9        29.81F
PONCA CITY     CLEAR     78  66  66 S9G22     29.77S
BARTLESVILLE   CLEAR     76  67  73 S6        29.82S
MUSKOGEE       PTCLDY    72  68  87 SE6       29.86F
$$

OKZ032-040>043-046>053-073>077-290900-
SOUTH CENTRAL/SOUTHEAST OKLAHOMA

CITY           SKY/WX    TMP DP  RH WIND       PRES   REMARKS
ARDMORE/DWNTWN CLEAR     77  66  69 S8G16     29.84S
MCALESTER      CLEAR     77  68  73 VRB5      29.87F
$$




USA.gov is the U.S. government's official web portal to all federal, state and local government web resources and services.